SCP
0 0 0 0 0 0 0 0 0 0 0 0 0 0 0 0 0 0 0 0 0 0 0 0 0 0 0 0 0 0 0 0
0 0 0 0 1 0 0 0 0 0 0 0 0 0 0 0 0 0 0 0 0 0 0 0 0 0 0 0 0 0 -0 0
0 0 0 0 0 0 0 0 0 0 0 0 0 0 0 0 0 0 0 0 0 0 0 0 0 0 0 0 0 0 0 0
0 0 0 0 1 0 1 1 1 0 0 0 0 0 0 0 0 0 0 0 0 0 0 0 0 0 0 0 0 0 0 0
1 1 0 1 0 1 1 1 1 1 0 0 0 0 0 0 0 0 0 0 0 0 0 0 0 0 0 0 0 0 0 0
0 1 1 1 2 2 2 2 2 1 0 0 0 0 0 0 0 0 0 0 0 0 0 0 0 0 0 0 0 0 0 0
1 1 2 2 3 2 1 1 1 0 0 0 0 0 0 0 0 0 0 0 0 0 0 0 0 0 0 0 0 0 0 0
0 2 2 3 2 2 1 0 0 0 0 0 0 0 0 0 0 0 0 0 0 0 0 0 0 0 0 0 0 0 0 0
1 1 2 2 2 1 1 1 0 0 0 0 0 0 0 0 0 0 0 0 0 0 0 0 0 0 0 0 0 0 0 0
2 1 2 2 2 2 1 1 0 0 0 0 0 0 0 0 0 0 0 0 0 0 0 0 0 0 0 0 0 0 0 0
4 3 1 1 1 1 1 0 0 0 0 0 0 0 0 0 0 0 0 0 0 0 0 0 0 0 0 0 0 0 0 0
3 3 2 1 1 1 1 0 0 0 0 0 0 0 0 0 0 0 0 0 0 0 0 0 0 0 0 0 0 0 0 0
1 2 2 2 1 0 0 0 0 0 0 0 0 0 0 0 0 0 0 0 0 0 0 0 0 0 0 0 0 0 0 0
3 2 2 1 0 0 0 0 0 0 0 0 0 0 0 0 0 0 0 0 0 0 0 0 0 0 0 0 0 0 0 0
0 1 1 1 0 0 0 0 0 0 0 0 0 0 0 0 0 0 0 0 0 0 0 0 0 0 0 0 0 0 0 0
0 0 0 0 0 0 0 0 0 0 0 0 0 0 0 0 0 0 0 0 0 0 0 0 0 0 0 0 0 0 0 0
0 0 0 0 0 0 0 0 0 0 0 0 0 0 0 0 0 0 0 0 0 0 0 0 0 0 0 0 0 0 0 0
0 0 0 0 0 0 0 0 0 0 0 0 0 0 0 0 0 0 0 0 0 0 0 0 0 0 0 0 0 0 0 0
0 0 0 0 0 0 0 0 0 0 0 0 0 0 0 0 0 0 0 0 0 0 0 0 0 0 0 0 0 0 0 0
0 0 0 0 0 0 0 0 0 0 0 0 0 0 0 0 0 0 0 0 0 0 0 0 0 0 0 0 0 0 0 0
Wind_Speed_500mb
22 40 42 39 38 39 40 40 40 41 37 35 30 27 23 20 20 17 17 17 15 13 12 10 10 12 17 26 24 12 4 13
26 42 41 40 40 39 39 41 41 38 37 37 32 28 21 22 20 21 21 20 18 17 16 14 14 14 19 29 32 21 24 15
32 36 35 37 38 41 39 37 37 36 37 35 32 31 29 28 30 24 23 21 21 21 21 19 17 16 22 38 31 17 10 15
35 34 39 36 37 38 42 42 41 40 36 34 28 25 24 28 31 28 26 27 25 24 21 19 18 23 35 37 27 25 26 21
39 40 38 40 36 46 46 49 50 49 44 39 32 27 27 34 30 31 31 30 29 28 27 23 22 24 33 23 30 30 40 31
38 39 42 44 51 56 52 53 51 50 50 42 42 42 40 39 38 36 38 34 34 32 29 33 26 21 21 31 31 34 39 32
40 42 46 54 59 56 57 57 54 54 55 48 49 47 47 42 41 38 37 36 39 36 37 37 41 44 37 36 25 34 36 32
49 47 48 54 53 52 51 49 53 50 60 51 49 49 50 48 47 46 42 38 35 37 37 41 45 48 39 44 25 31 33 30
37 51 52 48 52 55 54 53 54 59 62 62 60 57 55 55 55 58 50 44 41 39 40 37 37 38 42 47 38 21 29 29
42 43 46 46 49 47 51 53 55 59 62 62 63 62 60 60 60 54 52 46 47 44 47 45 43 42 42 45 41 32 21 20
54 47 37 26 37 48 50 51 56 55 51 57 61 62 62 68 69 64 49 50 53 54 54 54 54 49 48 43 45 46 35 24
32 36 33 28 34 44 52 54 52 47 45 46 58 62 61 67 71 57 54 58 61 61 57 57 58 58 50 51 49 47 43 46
16 19 27 37 39 44 50 43 41 40 43 58 52 59 60 64 64 54 56 65 65 61 59 62 58 61 54 51 42 41 44 39
8 27 28 32 38 41 48 56 58 64 61 54 51 54 56 54 58 56 61 71 67 65 70 68 64 68 71 62 41 37 33 30
16 13 20 25 33 38 44 47 55 52 53 51 53 54 48 50 54 61 56 74 68 72 78 76 72 77 80 63 37 18 44 35
2 6 7 17 22 35 46 51 55 57 61 66 67 70 74 72 65 73 61 61 65 67 76 86 72 83 72 61 47 28 41 41
16 22 27 32 32 30 37 47 51 52 58 70 78 79 85 80 78 71 66 59 74 57 67 83 67 81 86 67 51 31 54 57
18 27 33 38 41 42 43 42 40 41 52 63 75 76 74 69 66 65 71 68 70 65 61 81 61 59 67 75 53 43 51 50
34 46 46 48 48 49 41 37 37 38 38 45 59 68 66 64 62 64 72 75 72 69 68 66 64 57 70 54 61 45 37 23
40 47 53 45 51 59 51 39 38 37 38 39 42 47 53 56 57 59 61 64 71 75 81 73 84 60 46 38 38 57 35 38
Wind_Direction_500mb
215 197 193 188 192 194 197 204 208 211 208 215 212 221 223 218 225 226 226 226 224 224 220 213 193 175 163 160 146 129 298 189
221 193 190 187 191 198 203 209 212 210 209 218 220 226 227 225 230 231 228 226 221 216 209 203 192 175 161 152 132 109 180 227
201 198 193 194 200 203 207 216 218 216 216 223 223 227 225 225 228 228 230 229 224 216 207 193 186 172 156 150 141 140 199 241
201 198 195 198 205 214 215 217 221 225 227 223 229 250 237 232 231 228 224 223 220 213 207 197 182 168 150 144 139 178 191 215
208 204 203 206 208 222 219 219 223 226 226 223 230 223 215 231 232 231 224 223 219 212 203 193 173 166 148 152 164 200 217 223
205 209 208 203 209 213 216 214 213 217 224 233 234 224 232 235 238 235 229 225 223 217 202 172 156 193 190 190 171 208 215 213
201 206 213 210 217 227 225 224 227 230 244 229 225 228 244 240 240 232 227 227 229 219 195 190 184 193 195 186 213 210 221 220
204 206 217 222 219 227 234 234 240 248 236 231 233 238 247 239 228 229 222 223 214 221 200 208 203 205 197 178 211 210 219 226
219 206 218 224 228 233 243 246 244 244 248 251 249 241 237 240 237 233 226 210 207 213 203 212 195 194 183 179 185 203 220 227
245 226 225 235 230 238 243 243 246 248 248 249 250 246 239 242 235 237 224 213 205 206 209 191 191 189 186 183 175 179 211 238
220 236 235 251 255 242 240 244 253 257 259 249 248 247 243 242 239 236 219 210 213 203 209 194 193 188 185 177 176 178 176 167
232 240 234 240 254 244 242 246 252 258 253 251 246 245 242 244 239 229 216 210 213 203 210 197 197 190 182 182 181 188 186 193
252 222 238 256 262 251 243 239 239 237 241 265 254 241 244 242 233 220 212 213 214 206 204 198 198 190 180 178 179 179 196 203
232 238 252 250 250 253 255 249 250 259 250 254 241 243 245 243 233 210 217 220 217 207 203 198 199 193 186 168 159 170 178 183
181 213 251 257 261 256 256 256 261 264 258 241 234 233 229 231 237 215 228 227 217 214 206 198 197 195 194 179 157 186 177 184
330 329 275 290 275 264 259 261 265 266 258 239 232 231 232 226 218 217 218 221 212 219 213 199 200 194 186 190 192 192 182 176
4 346 331 321 310 288 273 268 268 264 259 252 240 237 233 230 230 227 219 215 214 206 209 210 194 203 191 185 194 219 196 182
321 325 322 317 312 301 288 273 266 264 260 253 246 241 242 246 252 244 233 224 218 209 212 204 203 200 191 192 204 189 182 178
305 306 305 305 298 290 276 275 278 272 265 262 262 255 259 259 256 250 241 235 225 219 214 206 208 205 193 191 206 203 186 182
295 291 287 292 291 297 291 288 283 282 276 266 262 265 266 265 259 254 249 243 234 221 217 208 213 222 187 189 198 205 209 215
Wind_Speed_850mb
22 40 42 39 38 39 40 40 40 41 37 35 30 27 23 20 20 17 17 17 15 13 12 10 10 12 17 26 24 12 4 13
26 42 41 40 40 39 39 41 41 38 37 37 32 28 21 22 20 21 21 20 18 17 16 14 14 14 19 29 32 21 24 15
32 36 35 37 38 41 39 37 37 36 37 35 32 31 29 28 30 24 23 21 21 21 21 19 17 16 22 38 31 17 10 15
35 34 39 36 37 38 42 42 41 40 36 34 28 25 24 28 31 28 26 27 25 24 21 19 18 23 35 37 27 25 26 21
39 40 38 40 36 46 46 49 50 49 44 39 32 27 27 34 30 31 31 30 29 28 27 23 22 24 33 23 30 30 40 31
38 39 42 44 51 56 52 53 51 50 50 42 42 42 40 39 38 36 38 34 34 32 29 33 26 21 21 31 31 34 39 32
40 42 46 54 59 56 57 57 54 54 55 48 49 47 47 42 41 38 37 36 39 36 37 37 41 44 37 36 25 34 36 32
49 47 48 54 53 52 51 49 53 50 60 51 49 49 50 48 47 46 42 38 35 37 37 41 45 48 39 44 25 31 33 30
37 51 52 48 52 55 54 53 54 59 62 62 60 57 55 55 55 58 50 44 41 39 40 37 37 38 42 47 38 21 29 29
42 43 46 46 49 47 51 53 55 59 62 62 63 62 60 60 60 54 52 46 47 44 47 45 43 42 42 45 41 32 21 20
54 47 37 26 37 48 50 51 56 55 51 57 61 62 62 68 69 64 49 50 53 54 54 54 54 49 48 43 45 46 35 24
32 36 33 28 34 44 52 54 52 47 45 46 58 62 61 67 71 57 54 58 61 61 57 57 58 58 50 51 49 47 43 46
16 19 27 37 39 44 50 43 41 40 43 58 52 59 60 64 64 54 56 65 65 61 59 62 58 61 54 51 42 41 44 39
8 27 28 32 38 41 48 56 58 64 61 54 51 54 56 54 58 56 61 71 67 65 70 68 64 68 71 62 41 37 33 30
16 13 20 25 33 38 44 47 55 52 53 51 53 54 48 50 54 61 56 74 68 72 78 76 72 77 80 63 37 18 44 35
2 6 7 17 22 35 46 51 55 57 61 66 67 70 74 72 65 73 61 61 65 67 76 86 72 83 72 61 47 28 41 41
16 22 27 32 32 30 37 47 51 52 58 70 78 79 85 80 78 71 66 59 74 57 67 83 67 81 86 67 51 31 54 57
18 27 33 38 41 42 43 42 40 41 52 63 75 76 74 69 66 65 71 68 70 65 61 81 61 59 67 75 53 43 51 50
34 46 46 48 48 49 41 37 37 38 38 45 59 68 66 64 62 64 72 75 72 69 68 66 64 57 70 54 61 45 37 23
40 47 53 45 51 59 51 39 38 37 38 39 42 47 53 56 57 59 61 64 71 75 81 73 84 60 46 38 38 57 35 38
Wind_Direction_850mb
215 197 193 188 192 194 197 204 208 211 208 215 212 221 223 218 225 226 226 226 224 224 220 213 193 175 163 160 146 129 298 189
221 193 190 187 191 198 203 209 212 210 209 218 220 226 227 225 230 231 228 226 221 216 209 203 192 175 161 152 132 109 180 227
201 198 193 194 200 203 207 216 218 216 216 223 223 227 225 225 228 228 230 229 224 216 207 193 186 172 156 150 141 140 199 241
201 198 195 198 205 214 215 217 221 225 227 223 229 250 237 232 231 228 224 223 220 213 207 197 182 168 150 144 139 178 191 215
208 204 203 206 208 222 219 219 223 226 226 223 230 223 215 231 232 231 224 223 219 212 203 193 173 166 148 152 164 200 217 223
205 209 208 203 209 213 216 214 213 217 224 233 234 224 232 235 238 235 229 225 223 217 202 172 156 193 190 190 171 208 215 213
201 206 213 210 217 227 225 224 227 230 244 229 225 228 244 240 240 232 227 227 229 219 195 190 184 193 195 186 213 210 221 220
204 206 217 222 219 227 234 234 240 248 236 231 233 238 247 239 228 229 222 223 214 221 200 208 203 205 197 178 211 210 219 226
219 206 218 224 228 233 243 246 244 244 248 251 249 241 237 240 237 233 226 210 207 213 203 212 195 194 183 179 185 203 220 227
245 226 225 235 230 238 243 243 246 248 248 249 250 246 239 242 235 237 224 213 205 206 209 191 191 189 186 183 175 179 211 238
220 236 235 251 255 242 240 244 253 257 259 249 248 247 243 242 239 236 219 210 213 203 209 194 193 188 185 177 176 178 176 167
232 240 234 240 254 244 242 246 252 258 253 251 246 245 242 244 239 229 216 210 213 203 210 197 197 190 182 182 181 188 186 193
252 222 238 256 262 251 243 239 239 237 241 265 254 241 244 242 233 220 212 213 214 206 204 198 198 190 180 178 179 179 196 203
232 238 252 250 250 253 255 249 250 259 250 254 241 243 245 243 233 210 217 220 217 207 203 198 199 193 186 168 159 170 178 183
181 213 251 257 261 256 256 256 261 264 258 241 234 233 229 231 237 215 228 227 217 214 206 198 197 195 194 179 157 186 177 184
330 329 275 290 275 264 259 261 265 266 258 239 232 231 232 226 218 217 218 221 212 219 213 199 200 194 186 190 192 192 182 176
4 346 331 321 310 288 273 268 268 264 259 252 240 237 233 230 230 227 219 215 214 206 209 210 194 203 191 185 194 219 196 182
321 325 322 317 312 301 288 273 266 264 260 253 246 241 242 246 252 244 233 224 218 209 212 204 203 200 191 192 204 189 182 178
305 306 305 305 298 290 276 275 278 272 265 262 262 255 259 259 256 250 241 235 225 219 214 206 208 205 193 191 206 203 186 182
295 291 287 292 291 297 291 288 283 282 276 266 262 265 266 265 259 254 249 243 234 221 217 208 213 222 187 189 198 205 209 215